| time (UTC) | temp F | wind direction | speed MPH | gust MPH | rain 1hr in | rain 24hr in | rain mn in | humidity % | barometer mb |
| 20260831191551 | 69 | 198 | 3.0 | 10.0 | 0.00 | 0.00 | 0.00 | 30 | 1020.8 |
| 20260831190051 | 70 | 187 | 2.0 | 8.0 | 0.00 | 0.00 | 0.00 | 30 | 1020.9 |
| 20260831184546 | 69 | 163 | 1.0 | 7.0 | 0.00 | 0.00 | 0.00 | 29 | 1020.9 |
| 20260831183050 | 69 | 153 | 2.0 | 7.0 | 0.00 | 0.00 | 0.00 | 29 | 1020.9 |
| 20260831181608 | 69 | 199 | 3.0 | 8.0 | 0.00 | 0.00 | 0.00 | 37 | 1020.9 |
| 20260831180047 | 68 | 152 | 3.0 | 7.0 | 0.00 | 0.00 | 0.00 | 44 | 1020.9 |
| 20260831174555 | 66 | 190 | 3.0 | 7.0 | 0.00 | 0.00 | 0.00 | 45 | 1020.9 |
| 20260831173048 | 66 | 175 | 2.0 | 7.0 | 0.00 | 0.00 | 0.00 | 46 | 1020.9 |
| 20260831171547 | 65 | 165 | 2.0 | 5.0 | 0.00 | 0.00 | 0.00 | 55 | 1020.9 |
| 20260831170056 | 65 | 189 | 3.0 | 7.0 | 0.00 | 0.00 | 0.00 | 57 | 1020.8 |
| 20260831164602 | 65 | 190 | 2.0 | 6.0 | 0.00 | 0.00 | 0.00 | 61 | 1020.7 |
| 20260831163051 | 63 | 196 | 3.0 | 7.0 | 0.00 | 0.00 | 0.00 | 61 | 1020.7 |
| 20260831161603 | 63 | 158 | 1.0 | 5.0 | 0.00 | 0.00 | 0.00 | 63 | 1020.8 |
| 20260831154618 | 62 | 170 | 2.0 | 6.0 | 0.00 | 0.00 | 0.00 | 62 | 1020.9 |
| 20260831153056 | 62 | 158 | 2.0 | 5.0 | 0.00 | 0.00 | 0.00 | 61 | 1020.9 |
| 20260831151548 | 63 | 175 | 1.0 | 4.0 | 0.00 | 0.00 | 0.00 | 60 | 1020.9 |
| 20260831150053 | 63 | 176 | 0.0 | 2.0 | 0.00 | 0.00 | 0.00 | 62 | 1020.9 |
| 20260831144601 | 60 | 0 | 0.0 | 1.0 | 0.00 | 0.00 | 0.00 | 62 | 1020.7 |
| 20260831143049 | 57 | 175 | 0.0 | 1.0 | 0.00 | 0.00 | 0.00 | 63 | 1020.5 |
| 20260831141551 | 54 | 175 | 0.0 | 2.0 | 0.00 | 0.00 | 0.00 | 57 | 1020.5 |
| 20260831140046 | 54 | 176 | 1.0 | 2.0 | 0.00 | 0.00 | 0.00 | 56 | 1020.5 |
| 20260831134558 | 54 | 176 | 1.0 | 2.0 | 0.00 | 0.00 | 0.00 | 59 | 1020.3 |
| 20260831133046 | 54 | 176 | 2.0 | 3.0 | 0.00 | 0.00 | 0.00 | 58 | 1020.4 |
| 20260831131601 | 54 | 176 | 1.0 | 3.0 | 0.00 | 0.00 | 0.00 | 60 | 1020.5 |
| 20260831130056 | 54 | 175 | 1.0 | 2.0 | 0.00 | 0.00 | 0.00 | 56 | 1020.5 |
| 20260831124545 | 54 | 176 | 1.0 | 2.0 | 0.00 | 0.00 | 0.00 | 53 | 1020.4 |
| 20260831123046 | 54 | 175 | 1.0 | 2.0 | 0.00 | 0.00 | 0.00 | 50 | 1020.4 |
| 20260831121556 | 54 | 176 | 1.0 | 2.0 | 0.00 | 0.00 | 0.00 | 58 | 1020.4 |
| 20260831120051 | 54 | 176 | 1.0 | 2.0 | 0.00 | 0.00 | 0.00 | 58 | 1020.4 |
| 20260831114551 | 54 | 176 | 1.0 | 2.0 | 0.00 | 0.00 | 0.00 | 57 | 1020.6 |
| 20260831113050 | 54 | 176 | 1.0 | 2.0 | 0.00 | 0.00 | 0.00 | 59 | 1020.7 |
| 20260831111550 | 55 | 176 | 1.0 | 2.0 | 0.00 | 0.00 | 0.00 | 58 | 1020.8 |
| 20260831110052 | 55 | 176 | 1.0 | 3.0 | 0.00 | 0.00 | 0.00 | 59 | 1020.9 |
| 20260831104552 | 55 | 176 | 1.0 | 2.0 | 0.00 | 0.00 | 0.00 | 57 | 1020.9 |
| 20260831103045 | 55 | 175 | 1.0 | 3.0 | 0.00 | 0.00 | 0.00 | 55 | 1021.0 |
| 20260831101547 | 55 | 176 | 1.0 | 2.0 | 0.00 | 0.00 | 0.00 | 55 | 1020.9 |
| 20260831100106 | 55 | 176 | 1.0 | 3.0 | 0.00 | 0.00 | 0.00 | 53 | 1020.9 |
| 20260831094548 | 55 | 176 | 1.0 | 2.0 | 0.00 | 0.00 | 0.00 | 49 | 1020.9 |
| 20260831093107 | 55 | 175 | 1.0 | 3.0 | 0.00 | 0.00 | 0.00 | 48 | 1021.0 |
| 20260831091550 | 56 | 176 | 1.0 | 3.0 | 0.00 | 0.00 | 0.00 | 47 | 1021.0 |
| 20260831090059 | 56 | 176 | 2.0 | 3.0 | 0.00 | 0.00 | 0.00 | 49 | 1021.2 |
| 20260831084547 | 56 | 176 | 2.0 | 3.0 | 0.00 | 0.00 | 0.00 | 48 | 1021.2 |
| 20260831083102 | 56 | 175 | 1.0 | 2.0 | 0.00 | 0.00 | 0.00 | 47 | 1021.3 |
| 20260831081601 | 56 | 176 | 1.0 | 3.0 | 0.00 | 0.00 | 0.00 | 49 | 1021.5 |
| 20260831080123 | 56 | 175 | 1.0 | 2.0 | 0.00 | 0.00 | 0.00 | 50 | 1021.5 |
| 20260831074551 | 57 | 175 | 1.0 | 3.0 | 0.00 | 0.00 | 0.00 | 50 | 1021.6 |
| 20260831073046 | 57 | 175 | 1.0 | 3.0 | 0.00 | 0.00 | 0.00 | 49 | 1021.5 |
| 20260831071548 | 57 | 175 | 1.0 | 3.0 | 0.00 | 0.00 | 0.00 | 50 | 1021.4 |
| 20260831070052 | 57 | 175 | 1.0 | 3.0 | 0.00 | 0.00 | 0.00 | 49 | 1021.5 |
| 20260831064548 | 57 | 175 | 1.0 | 3.0 | 0.00 | 0.00 | 0.00 | 49 | 1021.6 |
| 20260831063104 | 58 | 176 | 2.0 | 3.0 | 0.00 | 0.00 | 0.00 | 48 | 1021.6 |
| 20260831061546 | 58 | 176 | 1.0 | 3.0 | 0.00 | 0.00 | 0.00 | 49 | 1021.8 |
| 20260831060051 | 58 | 176 | 1.0 | 3.0 | 0.00 | 0.00 | 0.00 | 48 | 1021.8 |
| 20260831054550 | 59 | 176 | 1.0 | 3.0 | 0.00 | 0.00 | 0.00 | 47 | 1021.8 |
| 20260831053123 | 59 | 175 | 2.0 | 3.0 | 0.00 | 0.00 | 0.00 | 47 | 1021.9 |
| 20260831051556 | 59 | 176 | 2.0 | 3.0 | 0.00 | 0.00 | 0.00 | 46 | 1022.0 |
| 20260831050054 | 59 | 176 | 1.0 | 3.0 | 0.00 | 0.00 | 0.00 | 45 | 1022.0 |
| 20260831044637 | 59 | 175 | 1.0 | 3.0 | 0.00 | 0.00 | 0.00 | 45 | 1022.0 |
| 20260831043047 | 59 | 175 | 1.0 | 3.0 | 0.00 | 0.00 | 0.00 | 44 | 1022.0 |
| 20260831041550 | 60 | 176 | 1.0 | 3.0 | 0.00 | 0.00 | 0.00 | 44 | 1022.0 |
| 20260831040050 | 60 | 175 | 1.0 | 3.0 | 0.00 | 0.00 | 0.00 | 44 | 1021.8 |
| 20260831034547 | 61 | 175 | 1.0 | 3.0 | 0.00 | 0.00 | 0.00 | 43 | 1021.5 |
| 20260831033102 | 61 | 175 | 1.0 | 3.0 | 0.00 | 0.00 | 0.00 | 44 | 1021.5 |
| 20260831031543 | 61 | 175 | 1.0 | 3.0 | 0.00 | 0.00 | 0.00 | 43 | 1021.5 |
| 20260831030052 | 62 | 175 | 1.0 | 3.0 | 0.00 | 0.00 | 0.00 | 42 | 1021.3 |
| 20260831024546 | 63 | 175 | 1.0 | 3.0 | 0.00 | 0.00 | 0.00 | 40 | 1021.1 |
| 20260831023046 | 64 | 175 | 1.0 | 2.0 | 0.00 | 0.00 | 0.00 | 39 | 1021.1 |
| 20260831021542 | 65 | 175 | 0.0 | 2.0 | 0.00 | 0.00 | 0.00 | 38 | 1021.0 |
| 20260831020053 | 66 | 0 | 0.0 | 3.0 | 0.00 | 0.00 | 0.00 | 39 | 1021.1 |
| 20260831014547 | 67 | 0 | 0.0 | 4.0 | 0.00 | 0.00 | 0.00 | 38 | 1021.1 |
| 20260831013047 | 67 | 176 | 1.0 | 6.0 | 0.00 | 0.00 | 0.00 | 38 | 1020.9 |
| 20260831011557 | 68 | 0 | 1.0 | 5.0 | 0.00 | 0.00 | 0.00 | 36 | 1020.9 |
| 20260831004546 | 69 | 193 | 2.0 | 7.0 | 0.00 | 0.00 | 0.00 | 35 | 1020.9 |
| 20260831003047 | 70 | 171 | 3.0 | 10.0 | 0.00 | 0.00 | 0.00 | 35 | 1021.0 |
| 20260831001544 | 70 | 190 | 3.0 | 8.0 | 0.00 | 0.00 | 0.00 | 32 | 1021.0 |
| 20260831000058 | 71 | 185 | 2.0 | 7.0 | 0.00 | 0.00 | 0.00 | 33 | 1021.1 |
| 20260830234549 | 71 | 180 | 4.0 | 10.0 | 0.00 | 0.00 | 0.00 | 32 | 1021.1 |
| 20260830233046 | 70 | 168 | 3.0 | 9.0 | 0.00 | 0.00 | 0.00 | 34 | 1021.1 |
| 20260830231554 | 70 | 188 | 2.0 | 9.0 | 0.00 | 0.00 | 0.00 | 32 | 1021.3 |
| 20260830230046 | 70 | 188 | 2.0 | 10.0 | 0.00 | 0.00 | 0.00 | 32 | 1021.4 |
| 20260830224552 | 71 | 190 | 3.0 | 8.0 | 0.00 | 0.00 | 0.00 | 30 | 1021.5 |
| 20260830223051 | 72 | 145 | 4.0 | 10.0 | 0.00 | 0.00 | 0.00 | 29 | 1021.6 |
| 20260830221549 | 72 | 188 | 1.0 | 10.0 | 0.00 | 0.00 | 0.00 | 30 | 1021.8 |
| 20260830220047 | 71 | 195 | 3.0 | 10.0 | 0.00 | 0.00 | 0.00 | 29 | 1022.0 |
| 20260830214554 | 71 | 158 | 3.0 | 10.0 | 0.00 | 0.00 | 0.00 | 28 | 1022.1 |
| 20260830213102 | 71 | 188 | 2.0 | 7.0 | 0.00 | 0.00 | 0.00 | 28 | 1022.3 |
| 20260830211545 | 70 | 196 | 4.0 | 9.0 | 0.00 | 0.00 | 0.00 | 27 | 1022.4 |
| 20260830210045 | 70 | 194 | 2.0 | 8.0 | 0.00 | 0.00 | 0.00 | 28 | 1022.4 |
| 20260830204551 | 69 | 186 | 3.0 | 9.0 | 0.00 | 0.00 | 0.00 | 26 | 1022.6 |
| 20260830203051 | 69 | 208 | 4.0 | 9.0 | 0.00 | 0.00 | 0.00 | 26 | 1022.6 |
| 20260830201546 | 69 | 148 | 3.0 | 8.0 | 0.00 | 0.00 | 0.00 | 25 | 1022.5 |
| 20260830200057 | 70 | 184 | 2.0 | 9.0 | 0.00 | 0.00 | 0.00 | 24 | 1022.6 |
| 20260830194558 | 70 | 188 | 1.0 | 7.0 | 0.00 | 0.00 | 0.00 | 24 | 1022.6 |
| 20260830193052 | 69 | 190 | 2.0 | 10.0 | 0.00 | 0.00 | 0.00 | 24 | 1022.8 |